International Virtual Aviation Organisation

Russian Federation and Kazakhstan MCD

 

Карточка аэропорта USPP

Внимание!
Информация на этой странице в стадии наполнения.
Если вы не увидели какой-то информации, или заметили неточность - пожалуйста сообщите нам!
Спасибо!
Команда RU-STAFF
Название аэропортаБольшое Савино
Название аэропорта (англ.)Bolshoe Savino
Превышение404 ft. (123.1 m.)
Координаты57°55.866', 56°1.6019999999999'
Высота перехода1200m
Эшелон переходаQFE>749:FL60; 749>QFE>722:FL70; 722>QFE: FL80;
Коды ответчика5610-5617
Зона ОрВДЕкатеринбург РПИ (USSV)
Данные METARUSPP 270330Z 11003MPS 9000 -SN NSC M12/M13 Q1025 R03/390245 TEMPO 1100 SN BKN004 RMK QFE758
Проноз погоды (TAF)USPP 270156Z 2703/2803 10003G08MPS 6000 -SN BKN016 TEMPO 2703/2706 BKN011 BECMG 2706/2707 9999
NOTAMshow/hide NOTAM
AWOS   TABLE

Информация о ВПП

ВПП Длина ВПП (м.) Покрытие Курс ВПП Частота ILS
213204Железобетон211109.9
033204Железобетон31 

Диспетчерские позиции

Позывной Наименование органа УВД Частота
USPP_R_APPПермь-Круг121.700
USPP_APPПермь-Подход127.100
USPP_TWRПермь-Старт124.000



Спутниковое изображение